Tracking 19570 objects as of 22-Feb-2019
HD Live streaming from Space Station
objects crossing your sky now

O3B FM4

Track O3B FM4 now!
10-day predictions
O3B FM4 is classified as:


NORAD ID: 39189
Int'l Code: 2013-031B
Perigee: 8,069.3 km
Apogee: 8,076.7 km
Inclination: 0.0 °
Period: 287.9 minutes
Semi major axis: 14444 km
RCS: Unknown
Launch date: June 25, 2013
Source: O3b Networks (O3B)
Launch site: FRENCH GUIANA (FRGUI)

O3b satellites will reach customers across the planet between 45 degrees north and south latitude. O3b offers the benefits of fiber-optic lines without the costs to maintain them.
aabbcc
Your satellite tracking list
Your tracking list is empty




NASA's NSSDC Master Catalog

Two Line Element Set (TLE):
1 39189U 13031B   19051.27048729 -.00000025 +00000-0 +00000-0 0  9991
2 39189 000.0497 355.6550 0002561 335.7820 028.5424 05.00115779103377
Source of the keplerian elements: AFSPC